Flag for Norway Weather past 2 weeks in Asker, Norway

Now
54 °F

Cool.


Feels Like: N/A
Forecast: 46 / 61 °F
Wind: N/A

Location: Oslo / Fornebu

Current Time: Aug 23, 2014 at 10:05:31 PM

Latest Report: Aug 23, 2014 at 9:20 PM


Visibility: N/A

Pressure: 29.74 "Hg

Humidity: 72%

Dew point: 45 °F

Location of AskerLocation

Historic Weather in Asker — Graph

°F

Asker temperature yesterday

Maximum temperature yesterday: 55 °F (at 9:50 AM)
Minimum temperature yesterday: 52 °F (at 5:50 AM)
Average temperature yesterday: 53 °F

Past Weeks' High & Low Weather Summary

 TemperatureHumidityPressure
High59 °F (Aug 12, 8:20 PM)100% (Aug 16, 4:50 PM)29.89 "Hg (Aug 16, 4:50 PM)
Low52 °F (Aug 16, 3:50 AM)59% (Aug 15, 9:50 AM)29.21 "Hg (Aug 12, 8:20 PM)
Average55 °F81%29.58 "Hg
* Reported Aug 8 8:20 PM — Aug 23 8:20 PM, Asker, Weather by CustomWeather, © 2014

Note: Actual official high and low records may vary slightly from our data, if they occured in-between our weather recording intervals... More about our weather records

Advertising

Asker weather history for previous 24 hours

 ConditionsComfort  
Time TempWeatherWind HumidityBarometerVisibility
8:20 PM
Aug 23
54 °FPartly sunny.28 mph77%29.74 "HgN/A
7:50 PM54 °FPartly sunny.28 mph77%29.71 "HgN/A
7:20 PM54 °FPartly sunny.29 mph72%29.71 "HgN/A
6:50 PM54 °FScattered clouds.30 mph72%29.71 "HgN/A
6:20 PM54 °FPassing clouds.31 mph77%29.71 "HgN/A
5:50 PM54 °FBroken clouds.32 mph77%29.71 "HgN/A
5:20 PM54 °FPartly sunny.31 mph82%29.71 "HgN/A
4:50 PM54 °FPartly sunny.30 mph82%29.71 "HgN/A
4:20 PM54 °FBroken clouds.32 mph82%29.68 "HgN/A
3:50 PM54 °FPartly sunny.32 mph88%29.68 "HgN/A
3:20 PM54 °FPartly sunny.31 mph88%29.68 "HgN/A
2:50 PM52 °FPartly sunny.31 mph94%29.68 "HgN/A
2:20 PM54 °FPartly sunny.30 mph82%29.68 "HgN/A
1:50 PM54 °FPartly sunny.31 mph82%29.68 "HgN/A
1:20 PM54 °FPartly sunny.31 mph82%29.68 "HgN/A
12:50 PM54 °FPartly sunny.32 mph82%29.65 "HgN/A
12:20 PM54 °FBroken clouds.33 mph82%29.65 "HgN/A
11:50 AM54 °FPartly sunny.36 mph82%29.65 "HgN/A
11:20 AM54 °FBroken clouds.35 mph88%29.65 "HgN/A
10:50 AM54 °FSprinkles. Partly sunny.30 mph88%29.65 "HgN/A
10:20 AM52 °FSprinkles. Partly sunny.29 mph94%29.65 "HgN/A
9:50 AM54 °FLight rain. Broken clouds.28 mph88%29.65 "HgN/A
9:20 AM54 °FBroken clouds.26 mph88%29.62 "HgN/A
8:50 AM54 °FPassing clouds.28 mph88%29.62 "HgN/A
8:20 AM54 °FPartly sunny.25 mph88%29.62 "HgN/A
7:50 AM52 °FPartly sunny.20 mph94%29.65 "HgN/A
7:20 AM52 °FLight rain. Broken clouds.17 mph94%29.62 "Hg3 mi
6:50 AM52 °FPartly sunny.28 mph88%29.62 "HgN/A
6:20 AM54 °FPassing clouds.24 mph77%29.62 "HgN/A
5:50 AM52 °FPassing clouds.22 mph77%29.65 "HgN/A
5:20 AM54 °FPassing clouds.23 mph72%29.65 "HgN/A
4:50 AM52 °FPartly cloudy.23 mph77%29.65 "HgN/A
4:20 AM54 °FPartly cloudy.21 mph67%29.65 "HgN/A
3:50 AM52 °FPassing clouds.N/A82%29.65 "HgN/A
3:20 AM54 °FCool.N/A72%29.68 "HgN/A
2:50 AM52 °FCool.N/A72%29.68 "HgN/A
2:20 AM54 °FCool.N/A72%29.68 "HgN/A
1:50 AM54 °FCool.N/A67%29.68 "HgN/A
1:20 AM54 °FCool.N/A67%29.68 "HgN/A
12:50 AM54 °FCool.N/A72%29.68 "HgN/A
12:20 AM52 °FCool.N/A72%29.68 "HgN/A
11:50 PM
Aug 22
52 °FCool.N/A77%29.68 "HgN/A
11:20 PM54 °FCool.N/A72%29.68 "HgN/A
10:50 PM52 °FCool.N/A77%29.68 "HgN/A
10:20 PM54 °FCool.N/A67%29.68 "HgN/A
Weather by CustomWeather, © 2014

See weather overviewHow to use our weather pages